Wind_Speed
31 32 32 33 34 35 35 36 36 36 37 37 36 36 35 35 36 36 36 36 37 37 37 36 36 36 36 36 36 36 36 35 35 35 35 34 33 33 33 33 32 32 31 31
33 33 33 35 35 36 36 37 37 38 38 39 38 37 36 36 37 37 37 37 37 37 38 38 38 37 37 37 37 37 37 37 37 37 36 36 36 35 35 34 34 33 33 33
34 35 35 35 36 37 37 37 38 39 40 40 41 39 36 36 37 38 38 37 37 37 38 38 38 38 38 38 38 38 38 38 38 38 38 38 37 37 36 36 35 35 35 34
35 35 35 36 36 37 37 38 39 39 41 41 41 42 37 36 37 37 38 38 38 38 38 38 38 39 39 39 39 39 39 39 39 39 39 39 38 38 37 37 37 36 36 35
35 35 35 36 36 36 37 38 39 40 41 42 40 43 40 38 38 37 37 38 38 38 39 39 39 39 39 40 39 39 40 40 40 40 40 40 39 39 38 37 37 37 37 36
36 37 37 37 37 37 38 39 40 40 41 43 40 41 42 39 38 38 37 38 38 38 39 39 39 39 39 40 40 40 40 40 40 40 40 41 40 39 39 38 38 38 38 38
38 38 39 39 39 38 39 39 41 42 42 43 41 41 41 39 38 38 39 39 38 38 39 40 40 39 39 39 40 40 41 41 40 41 41 41 40 40 40 39 39 39 39 39
40 40 39 39 39 40 39 39 40 42 43 43 41 41 41 39 39 39 39 39 39 39 39 39 39 39 39 39 40 40 40 41 41 41 41 41 41 41 40 40 40 40 40 40
41 41 41 41 40 40 40 39 40 41 42 42 41 41 41 38 39 39 39 39 39 39 39 39 39 39 39 39 39 40 40 41 41 41 41 42 41 41 41 41 41 41 41 41
42 43 42 42 41 41 41 41 40 40 40 41 40 39 39 38 38 39 40 39 39 40 40 39 40 39 39 39 39 40 40 40 41 41 41 42 42 42 42 42 42 42 42 42
42 43 43 43 42 41 41 41 40 40 39 40 40 38 37 38 38 38 38 39 38 39 40 39 40 40 39 39 40 40 41 41 41 41 42 42 42 43 43 43 42 43 43 43
42 43 43 42 42 41 41 40 40 40 39 40 42 41 38 38 38 38 38 39 39 39 39 39 39 40 40 40 40 41 42 42 42 42 42 42 43 43 43 43 44 43 43 43
43 43 44 42 42 41 40 39 39 40 40 40 41 41 39 40 39 39 39 40 39 40 40 40 40 40 41 41 41 42 43 43 44 43 43 42 43 44 44 44 44 44 43 43
43 42 42 42 41 41 40 38 38 39 40 41 40 40 39 41 40 40 40 40 40 40 40 40 40 40 41 42 42 43 43 44 44 44 43 43 44 44 45 45 44 44 44 44
43 42 42 41 40 40 39 38 38 39 40 41 41 40 40 41 41 40 39 39 39 39 39 39 40 41 41 42 42 42 43 44 44 44 44 44 44 45 46 45 44 44 44 44
43 43 42 41 40 40 39 38 39 39 40 41 41 40 39 40 40 40 39 39 39 40 40 40 40 40 41 41 41 41 42 43 44 44 45 45 45 45 45 45 45 45 44 44
44 43 42 41 39 40 39 38 38 38 38 38 39 38 39 39 39 39 39 40 39 39 39 40 40 41 41 42 41 41 41 42 43 44 44 45 45 45 45 45 45 45 45 45
41 41 41 40 39 39 39 38 37 37 36 37 37 37 37 38 38 38 39 40 40 39 39 39 39 39 40 41 41 41 41 41 41 41 42 42 43 44 44 44 44 45 45 45
39 38 39 39 40 40 38 36 36 37 36 36 36 36 36 36 36 36 38 38 38 39 39 39 38 38 38 39 39 39 39 39 39 39 40 40 41 41 42 42 42 43 44 44
37 37 37 38 39 39 38 36 36 36 35 34 35 35 35 35 35 34 36 37 37 38 38 38 37 36 36 36 37 37 37 37 38 38 38 38 39 40 41 41 42 43 43 43
36 36 36 37 38 38 37 36 35 35 35 35 35 35 35 35 35 35 35 36 37 36 36 35 35 34 34 35 35 36 36 36 36 36 37 37 38 39 40 41 41 41 41 41
37 37 37 36 36 35 35 35 35 36 36 36 35 36 35 35 35 35 35 35 35 34 34 34 33 33 33 34 34 35 35 36 36 36 36 36 37 38 39 40 40 40 40 40
36 36 35 35 35 35 35 35 35 35 35 35 35 35 34 34 34 34 34 34 33 32 32 32 32 32 32 33 34 34 35 36 36 36 36 36 37 37 38 39 39 39 39 38
34 34 34 34 34 35 35 35 35 35 35 34 34 33 33 33 33 33 33 33 32 31 31 31 31 31 31 32 32 33 34 35 36 36 36 36 36 36 36 37 38 38 38 38
33 34 34 34 33 33 33 34 34 34 34 34 33 33 33 33 32 32 31 31 31 31 30 31 31 31 31 31 31 31 32 34 34 35 35 35 35 35 35 36 36 36 36 36
33 34 34 33 33 33 33 33 33 33 32 32 32 32 32 32 31 30 30 30 29 29 29 30 31 31 31 31 31 31 32 33 34 34 34 35 34 33 33 33 34 35 35 35
Wind_Direction
286 286 286 286 286 286 286 286 285 284 284 282 282 280 278 277 275 273 272 270 267 264 263 262 261 260 259 258 257 256 256 256 256 256 256 256 256 257 257 256 255 255 255 257
287 287 288 287 287 287 287 287 286 285 284 283 282 280 279 277 276 274 273 271 268 265 263 262 261 260 259 258 258 257 256 256 256 255 255 256 257 257 257 256 255 256 256 257
288 289 288 288 287 287 288 288 287 286 284 283 283 280 279 277 276 274 272 271 269 266 264 262 261 260 259 258 258 257 256 256 256 256 255 256 256 257 257 257 256 256 257 257
291 291 290 290 290 290 289 288 287 286 285 285 284 283 280 277 274 272 272 270 269 267 265 263 261 260 259 258 258 257 256 256 256 255 255 255 256 256 256 256 255 255 257 257
294 293 292 292 292 291 290 289 288 287 285 284 284 284 281 279 275 273 271 270 269 268 266 264 262 261 260 259 258 257 256 255 255 255 255 255 255 255 254 254 254 254 256 256
294 294 294 293 293 292 291 290 288 287 286 285 285 283 282 280 278 275 272 270 269 267 266 264 263 262 260 259 258 257 256 255 254 254 254 254 254 253 253 252 253 254 255 256
294 293 293 293 293 292 293 292 290 289 288 287 286 283 281 281 278 275 272 270 268 266 265 264 263 262 260 259 257 256 256 255 254 253 254 254 253 253 252 252 253 253 254 255
295 295 295 294 294 293 292 292 291 290 290 288 285 283 282 279 277 275 273 271 268 266 264 264 263 262 260 258 257 255 255 254 254 253 253 253 253 253 253 253 253 253 254 255
296 295 295 294 294 294 293 291 290 289 288 286 285 284 281 279 276 273 273 272 269 267 265 264 264 262 260 257 256 255 254 253 252 252 252 253 253 253 253 253 254 254 254 255
296 295 295 294 294 293 293 292 290 288 287 286 286 285 284 282 278 275 273 271 269 268 266 265 264 263 260 257 256 255 254 253 252 252 253 252 252 253 254 254 255 255 255 255
297 296 296 295 295 294 292 290 288 286 284 284 284 283 284 282 280 279 276 273 270 269 267 265 263 262 260 258 256 254 253 253 253 253 253 252 251 252 253 254 255 255 256 256
298 298 298 298 296 294 292 290 288 284 282 282 282 281 282 281 279 278 276 275 272 270 268 266 263 262 260 258 256 254 252 252 253 253 253 253 253 253 253 254 254 255 256 256
299 298 298 298 297 295 292 290 287 284 283 282 282 282 281 280 278 276 275 274 273 271 268 266 263 261 259 259 257 254 254 253 253 253 253 253 253 253 254 254 254 255 255 256
297 296 296 296 296 295 293 290 287 284 284 283 282 281 278 277 277 275 274 274 272 271 269 266 264 261 259 258 257 255 255 255 254 253 252 253 253 254 255 254 254 255 255 256
297 296 295 294 293 291 290 289 286 284 284 284 282 280 278 277 277 275 273 273 271 270 269 267 264 261 259 257 257 256 255 254 254 254 253 253 253 253 253 253 254 254 255 256
297 296 295 294 293 290 288 288 287 286 285 283 282 280 277 276 277 276 273 272 271 270 269 267 265 262 260 258 257 256 256 255 254 254 254 254 253 253 253 253 253 254 254 256
296 295 295 294 294 292 290 291 290 288 286 284 283 282 279 277 276 275 273 272 271 271 270 268 266 263 261 259 258 257 256 255 254 254 254 253 254 253 253 252 252 253 254 255
297 296 295 296 296 294 295 294 292 290 288 287 285 283 282 279 278 277 275 273 272 271 270 269 267 264 261 260 259 258 256 255 254 254 253 253 253 254 254 253 253 254 254 255
299 298 298 298 297 297 297 297 295 292 290 289 287 285 283 282 281 278 277 275 274 272 270 269 267 264 262 260 259 258 257 254 253 254 253 253 254 254 253 253 254 255 255 256
299 299 299 299 299 299 298 297 294 293 291 291 290 288 286 285 282 279 277 276 275 273 271 269 267 264 262 260 259 258 257 255 254 253 253 253 253 254 254 253 254 255 256 256
300 299 299 300 299 298 299 297 293 291 292 291 291 290 288 286 283 281 279 277 277 275 271 269 266 263 262 261 260 259 258 256 255 254 254 254 254 254 254 253 254 256 256 257
301 300 300 300 300 299 298 295 293 292 292 291 291 290 289 286 284 283 281 280 277 274 271 268 266 264 263 263 261 260 258 257 256 256 255 254 255 256 255 254 254 255 256 257
300 300 300 299 298 298 297 296 295 293 292 291 291 291 289 287 286 284 282 281 279 273 270 268 267 265 265 264 263 261 258 257 257 256 256 256 256 257 256 255 254 255 256 256
300 300 299 298 297 296 296 294 293 292 292 291 292 292 291 289 287 284 281 279 278 275 271 268 267 266 265 265 263 261 259 258 257 256 255 255 255 256 256 256 256 256 256 256
300 301 300 299 298 295 294 294 294 293 293 292 292 292 292 291 289 285 282 280 277 276 274 270 268 266 266 265 264 262 260 259 257 255 255 255 255 255 255 255 255 256 257 256
299 299 301 302 301 298 297 295 295 295 295 295 293 292 291 291 290 287 283 280 278 277 275 272 270 268 266 264 264 263 261 260 257 255 255 255 255 254 254 253 253 255 256 255
Height
5740 5740 5737 5735 5733 5731 5729 5727 5726 5725 5722 5720 5720 5720 5720 5719 5718 5718 5718 5718 5718 5718 5719 5720 5721 5722 5723 5724 5726 5727 5729 5730 5732 5733 5735 5736 5738 5739 5741 5742 5744 5745 5747 5748
5733 5731 5729 5727 5724 5722 5720 5718 5717 5715 5712 5711 5710 5710 5710 5709 5708 5708 5707 5707 5708 5708 5709 5710 5711 5712 5713 5714 5716 5717 5719 5721 5722 5724 5726 5727 5729 5730 5732 5734 5736 5737 5739 5741
5724 5723 5720 5718 5715 5713 5711 5709 5707 5705 5703 5701 5699 5700 5700 5699 5698 5697 5697 5697 5697 5698 5699 5700 5701 5702 5703 5704 5706 5707 5709 5711 5713 5714 5716 5718 5719 5721 5723 5726 5728 5729 5731 5733
5715 5713 5711 5708 5706 5703 5702 5700 5697 5694 5692 5691 5690 5686 5690 5689 5687 5686 5686 5687 5687 5687 5688 5689 5690 5691 5692 5693 5695 5696 5698 5700 5702 5704 5706 5708 5710 5712 5714 5716 5718 5721 5722 5724
5706 5704 5702 5700 5697 5694 5692 5689 5687 5684 5681 5680 5680 5676 5678 5677 5676 5676 5676 5676 5676 5676 5677 5678 5679 5680 5681 5682 5684 5685 5687 5689 5691 5693 5696 5698 5700 5702 5704 5707 5709 5711 5713 5715
5698 5695 5693 5690 5688 5685 5682 5680 5677 5674 5671 5669 5671 5666 5665 5666 5666 5665 5665 5665 5665 5665 5665 5666 5667 5669 5670 5671 5672 5674 5676 5678 5680 5682 5685 5687 5689 5692 5694 5697 5699 5701 5704 5706
5689 5686 5683 5681 5678 5675 5672 5669 5666 5662 5660 5659 5659 5655 5656 5656 5655 5654 5654 5654 5654 5654 5654 5655 5656 5657 5659 5660 5661 5663 5665 5667 5669 5671 5674 5676 5679 5681 5684 5686 5689 5691 5694 5696
5679 5676 5674 5671 5668 5665 5662 5659 5656 5652 5649 5648 5647 5645 5646 5646 5644 5642 5642 5642 5642 5643 5643 5644 5645 5646 5647 5648 5650 5652 5653 5656 5658 5660 5662 5665 5668 5670 5673 5676 5678 5681 5684 5686
5668 5666 5663 5661 5658 5655 5651 5649 5646 5642 5637 5635 5635 5635 5634 5634 5632 5632 5631 5631 5631 5631 5632 5633 5634 5635 5636 5637 5639 5640 5642 5644 5647 5649 5651 5654 5656 5659 5662 5665 5667 5670 5673 5675
5658 5655 5653 5650 5648 5645 5641 5638 5635 5631 5627 5624 5625 5624 5623 5622 5621 5620 5620 5620 5620 5620 5621 5621 5622 5623 5625 5626 5627 5629 5631 5633 5635 5638 5640 5643 5645 5648 5651 5653 5656 5659 5661 5664
5647 5644 5642 5639 5636 5634 5631 5628 5624 5621 5618 5615 5613 5616 5613 5611 5610 5609 5608 5608 5608 5609 5609 5610 5611 5612 5613 5614 5616 5618 5620 5622 5624 5626 5628 5631 5634 5636 5639 5642 5644 5647 5649 5652
5637 5633 5630 5628 5625 5622 5619 5616 5613 5611 5608 5605 5603 5606 5604 5601 5599 5598 5598 5597 5597 5597 5597 5598 5599 5600 5601 5603 5604 5606 5608 5610 5613 5615 5617 5619 5622 5624 5627 5630 5633 5635 5638 5640
5626 5623 5619 5617 5616 5612 5608 5605 5602 5599 5597 5595 5593 5595 5592 5589 5587 5587 5586 5585 5585 5585 5586 5586 5587 5588 5589 5591 5592 5594 5596 5598 5601 5603 5605 5608 5610 5613 5615 5618 5621 5623 5626 5628
5615 5612 5610 5607 5603 5599 5597 5595 5591 5588 5586 5584 5583 5582 5580 5577 5576 5575 5574 5574 5574 5573 5574 5574 5575 5576 5577 5579 5580 5582 5584 5586 5588 5590 5593 5596 5598 5601 5603 5606 5608 5611 5614 5616
5604 5602 5599 5596 5592 5589 5586 5584 5581 5578 5576 5573 5572 5570 5567 5565 5564 5563 5563 5562 5561 5561 5561 5562 5562 5563 5564 5566 5568 5569 5572 5574 5576 5578 5581 5583 5586 5588 5591 5593 5596 5599 5601 5604
5593 5590 5587 5585 5582 5578 5575 5573 5571 5568 5565 5562 5559 5559 5556 5554 5552 5552 5551 5550 5549 5549 5549 5549 5550 5551 5552 5553 5555 5557 5558 5561 5563 5566 5568 5570 5573 5575 5578 5581 5584 5586 5589 5591
5582 5579 5575 5573 5571 5566 5565 5564 5560 5557 5554 5551 5548 5548 5545 5543 5541 5540 5539 5538 5538 5537 5537 5537 5537 5538 5539 5540 5542 5544 5545 5547 5550 5552 5555 5557 5560 5563 5565 5568 5571 5574 5576 5579
5572 5568 5564 5561 5559 5555 5557 5553 5549 5546 5543 5540 5537 5535 5533 5531 5530 5528 5527 5526 5525 5525 5525 5525 5525 5526 5527 5528 5529 5531 5532 5535 5537 5539 5541 5544 5547 5550 5553 5555 5558 5561 5563 5566
5562 5558 5554 5551 5547 5544 5544 5542 5538 5534 5532 5530 5526 5524 5522 5520 5519 5518 5516 5514 5513 5513 5513 5513 5513 5514 5515 5516 5517 5519 5520 5522 5525 5527 5529 5532 5535 5537 5540 5543 5545 5548 5550 5553
5554 5549 5546 5541 5536 5534 5535 5531 5527 5525 5522 5520 5516 5513 5511 5509 5508 5508 5505 5503 5502 5502 5501 5501 5502 5502 5503 5504 5506 5508 5509 5511 5513 5516 5518 5521 5523 5526 5528 5531 5533 5536 5538 5540
5544 5540 5537 5532 5527 5524 5524 5521 5518 5516 5514 5510 5506 5503 5501 5499 5497 5496 5494 5493 5491 5491 5490 5490 5491 5491 5492 5494 5495 5497 5499 5501 5503 5505 5507 5509 5512 5514 5517 5519 5522 5524 5526 5528
5535 5531 5528 5524 5519 5519 5515 5511 5508 5505 5502 5499 5496 5493 5491 5489 5487 5485 5483 5482 5481 5480 5480 5480 5480 5481 5482 5483 5485 5486 5488 5490 5492 5494 5496 5498 5500 5503 5505 5507 5510 5512 5514 5516
5526 5523 5519 5516 5513 5509 5505 5501 5498 5495 5492 5489 5486 5484 5481 5479 5477 5475 5473 5472 5471 5470 5470 5470 5471 5471 5472 5473 5474 5475 5477 5479 5481 5483 5485 5487 5489 5491 5493 5495 5498 5500 5503 5505
5517 5514 5510 5506 5504 5500 5496 5492 5489 5486 5483 5480 5477 5474 5471 5469 5467 5465 5464 5462 5461 5461 5460 5460 5461 5461 5462 5462 5463 5464 5466 5468 5470 5472 5474 5476 5478 5480 5482 5484 5486 5489 5491 5493
5509 5505 5501 5498 5495 5491 5488 5484 5480 5477 5474 5471 5468 5465 5462 5460 5458 5456 5454 5453 5451 5451 5451 5451 5451 5451 5452 5452 5453 5454 5455 5457 5459 5461 5464 5465 5467 5469 5471 5473 5475 5478 5480 5482
5501 5497 5493 5489 5486 5482 5478 5475 5471 5468 5465 5462 5459 5457 5454 5451 5448 5446 5444 5443 5442 5441 5441 5441 5441 5442 5442 5442 5443 5444 5445 5446 5448 5450 5453 5455 5457 5459 5460 5462 5465 5466 5469 5471